Showing default

HAWK-7B, 56193

Orbit data source: Space-Track

HAWK-7B, 56193 is a payload satellite owned by HawkEye 360 (US) in SSO that was launched on Sat, 15 Apr 2023 UTC via an FALCON 9 launch vehicle from the Air Force Western Test Range (AFWTR). Payload-class satellites include a variety of spacecraft equipped with specific instruments for various scientific and technological missions. These include communications satellites like Starlink; space stations such as the ISS; scientific satellites like the Hubble; Earth observation satellites from companies like Planet Labs, Umbra, and HawkEye 360; GPS; miniature CubeSats for education and research; and military/defense satellites.

Loading next visibility...
Identifier
56193, 2023-054R
Orbit
SSO
Country
Flag of USUS
Related business
Manufacturer
UTIAS-SFL
Mission
Operational Commercial Sigint
Bus & Motor
HAWK2G, Unknown motor
Mass
31 kg wet, 30 kg dry
Launch date (UTC)
2023-04-15 (3 years ago)
Launch vehicle
FALCON 9
Launch site
Air Force Western Test Range (AFWTR)
Object type
Payload
Rocket body
Debris
Shape & HBR
Box + 2 Pan, 1.0 m
Radar Cross Section
0.240 m², Medium (>0.1 m² and < 1m²)

Expand to show TLE details & history
Last TLE update: 1 day ago

TLE from 1 day ago
0 HAWK-7B
1 56193U 23054R   25309.23666469  .00009038  00000-0  31519-3 0  9991
2 56193  97.2944 194.8888 0007740 144.8593 215.3160 15.29821586142832
Epoch: 2025-11-05T05:40Z
TLE epoch observation values (Epoch: 2025-11-05T05:40:47.829Z)
Latitude
0.00003°
Longitude
64.97728°
Altitude
483.783 km
Speed
7.621 km/s
True Right ascension
12h 59m 33s
True Declination
0° 00' 00"
Sunlit
Object was in daylight at epoch
Visualization orbit readout
Latitude
Unknown
Longitude
Unknown
Altitude
Unknown
Speed
Unknown
Apparent Right ascension
Unknown
Apparent Declination
Unknown
Sunlit
N/A
Visualization observer readout
Local Sidereal Time
10:39:43
Azimuth
Unknown
Elevation
Unknown
Doppler factor
Unknown
Orbital elements
Apogee altitude
478.596 km
Perigee altitude
467.99 km
Semi-major axis
6,851.43 km
Eccentricity
0.00077
Inclination
97.2944°
RAAN
194.8888°
Arg. of periapsis
144.8593°
True anomaly
215.26477°
Mean anomaly
215.316°
Eccentric anomaly
215.29038°
Mean motion
3.82711 °/min
Orbital period
94.07 mins
BSTAR
0.00031519
Loading maneuver chart data...
Computing Atmospheric mass density...
Loading historical data...
Loading historical data...
Loading historical data...
Loading historical data...
Loading historical data...
Loading historical data...
Loading historical data...

Documentation

Showing up to 5 results
|